FW6021 Weather Reports


Display with metric or nautical units.
time (UTC)temp
F
wind
direction
speed
MPH
gust
MPH
rain 1hr
in
rain 24hr
in
rain mn
in
humidity
%
barometer
mb
20210615072016 64 0.0 0.0 0.00 0.00 0.00 54 1020.0
20210615071016 63 0.0 0.0 0.00 0.00 0.00 54 1019.0
20210615070029 63 0.0 0.0 0.00 0.00 0.00 54 1019.7
20210615065030 63 0.0 0.0 0.00 0.00 0.00 54 1020.0
20210615064030 62 0.0 0.0 0.00 0.00 0.00 54 1020.0
20210615063029 61 0.0 0.0 0.00 0.00 0.00 54 1019.3
20210615062031 61 0.0 0.0 0.00 0.00 0.00 55 1019.0
20210615061033 60 0.0 0.0 0.00 0.00 0.00 55 1019.0
20210615060033 60 0.0 0.0 0.00 0.00 0.00 55 1019.0
20210615055030 60 0.0 0.0 0.00 0.00 0.00 55 1019.0
20210615054029 60 0.0 0.0 0.00 0.00 0.00 55 1019.0
20210615053027 60 0.0 0.0 0.00 0.00 0.00 55 1019.0
20210615052029 60 0.0 0.0 0.00 0.00 0.00 55 1019.0
20210615051030 59 0.0 0.0 0.00 0.00 0.00 55 1019.0
20210615050025 59 0.0 0.0 0.00 0.00 0.00 55 1019.0
20210615045029 59 0.0 0.0 0.00 0.00 0.00 54 1019.0
20210615044028 59 0.0 0.0 0.00 0.00 0.00 54 1019.0
20210615043017 59 0.0 0.0 0.00 0.00 0.00 54 1018.3
20210615042030 60 0.0 0.0 0.00 0.00 0.00 54 1018.0
20210615041029 60 0.0 0.0 0.00 0.00 0.00 54 1018.0
20210615040021 60 0.0 0.0 0.00 0.00 0.00 53 1018.0
20210615035026 60 0.0 0.0 0.00 0.00 0.00 53 1018.0
20210615034031 60 0.0 0.0 0.00 0.00 0.00 53 1018.0
20210615033030 60 0.0 0.0 0.00 0.00 0.00 53 1018.0
20210615032030 60 0.0 0.0 0.00 0.00 0.00 53 1018.0
20210615031025 61 0.0 0.0 0.00 0.00 0.00 52 1018.0
20210615030015 61 0.0 0.0 0.00 0.00 0.00 51 1018.7
20210615025026 61 0.0 0.0 0.00 0.00 0.00 52 1019.0
20210615024029 61 0.0 0.0 0.00 0.00 0.00 52 1018.0
20210615023030 62 0.0 0.0 0.00 0.00 0.00 52 1018.0
20210615022015 62 0.0 0.0 0.00 0.00 0.00 52 1018.0
20210615021029 62 0.0 0.0 0.00 0.00 0.00 52 1018.0
20210615020016 62 0.0 0.0 0.00 0.00 0.00 52 1018.0
20210615015026 62 0.0 0.0 0.00 0.00 0.00 52 1018.0
20210615014018 62 0.0 0.0 0.00 0.00 0.00 52 1018.0
20210615013031 63 0.0 0.0 0.00 0.00 0.00 52 1018.0
20210615012029 63 0.0 0.0 0.00 0.00 0.00 52 1018.0
20210615011030 64 0.0 0.0 0.00 0.00 0.00 53 1018.0
20210615010101 64 0.0 0.0 0.00 0.00 0.00 53 1018.0
20210615005029 64 0.0 0.0 0.00 0.00 0.00 53 1018.0
20210615004030 64 0.0 0.0 0.00 0.00 0.00 53 1018.0
20210615003029 65 0.0 0.0 0.00 0.00 0.00 54 1018.0
20210615002023 65 0.0 0.0 0.00 0.00 0.00 56 1018.0
20210615001033 66 0.0 0.0 0.00 0.00 0.00 58 1018.0
20210615000057 66 0.0 0.0 0.00 0.00 0.00 59 1018.0
20210614235028 66 0.0 0.0 0.00 0.00 0.00 59 1018.0
20210614234029 66 0.0 0.0 0.00 0.00 0.00 60 1018.0
20210614233030 67 0.0 0.0 0.00 0.00 0.00 60 1018.0
20210614232030 67 0.0 0.0 0.00 0.00 0.00 61 1018.0
20210614231029 67 0.0 0.0 0.00 0.00 0.00 61 1018.0
20210614230030 67 0.0 0.0 0.00 0.00 0.00 60 1018.0
20210614225030 68 0.0 0.0 0.00 0.00 0.00 60 1018.0
20210614224029 68 0.0 0.0 0.00 0.00 0.00 60 1018.0
20210614223029 68 0.0 0.0 0.00 0.00 0.00 60 1018.0
20210614222029 68 0.0 0.0 0.00 0.00 0.00 60 1018.0
20210614221029 68 0.0 0.0 0.00 0.00 0.00 60 1018.0
20210614220029 69 0.0 0.0 0.00 0.00 0.00 60 1018.0
20210614215035 69 0.0 0.0 0.00 0.00 0.00 60 1018.0
20210614214029 69 0.0 0.0 0.00 0.00 0.00 60 1018.0
20210614213025 69 0.0 0.0 0.00 0.00 0.00 60 1018.0
20210614212029 69 0.0 0.0 0.00 0.00 0.00 60 1018.0
20210614211028 69 270 2.0 2.0 0.00 0.00 0.00 60 1018.0
20210614210030 69 270 1.0 2.0 0.00 0.00 0.00 62 1018.0
20210614205029 69 0.0 0.0 0.00 0.00 0.00 64 1018.0
20210614204016 69 0.0 0.0 0.00 0.00 0.00 67 1018.0
20210614203029 70 0.0 0.0 0.00 0.00 0.00 56 1017.3
20210614202029 70 0.0 0.0 0.00 0.00 0.00 55 1017.0
20210614201029 71 0.0 0.0 0.00 0.00 0.00 54 1017.0
20210614200042 71 0.0 0.0 0.00 0.00 0.00 54 1017.0
20210614195029 72 0.0 0.0 0.00 0.00 0.00 53 1017.0
20210614194029 72 0.0 0.0 0.00 0.00 0.00 53 1017.0
20210614193030 73 0.0 0.0 0.00 0.00 0.00 53 1017.0
20210614192029 73 0.0 0.0 0.00 0.00 0.00 53 1017.0
20210614191033 73 0.0 0.0 0.00 0.00 0.00 52 1017.0
20210614190024 74 0.0 0.0 0.00 0.00 0.00 51 1017.0
20210614185030 74 0.0 0.0 0.00 0.00 0.00 51 1017.0
20210614184022 74 0.0 0.0 0.00 0.00 0.00 51 1017.0
20210614183029 74 0.0 0.0 0.00 0.00 0.00 51 1017.0
20210614182029 75 0.0 0.0 0.00 0.00 0.00 51 1017.0
20210614181016 75 0.0 0.0 0.00 0.00 0.00 51 1017.0
20210614180030 75 0.0 0.0 0.00 0.00 0.00 50 1017.0
20210614175030 75 0.0 0.0 0.00 0.00 0.00 50 1017.0
20210614174029 76 0.0 0.0 0.00 0.00 0.00 50 1017.0
20210614173029 76 0.0 0.0 0.00 0.00 0.00 49 1017.0
20210614172030 77 0.0 0.0 0.00 0.00 0.00 48 1017.0
20210614171017 77 0.0 0.0 0.00 0.00 0.00 47 1017.0
20210614170029 78 0.0 0.0 0.00 0.00 0.00 47 1017.0
20210614165029 79 0.0 0.0 0.00 0.00 0.00 46 1017.0
20210614164031 80 0.0 0.0 0.00 0.00 0.00 46 1017.0
20210614163029 80 0.0 0.0 0.00 0.00 0.00 46 1017.0
20210614162029 81 0.0 0.0 0.00 0.00 0.00 46 1017.0
20210614161030 82 0.0 0.0 0.00 0.00 0.00 47 1017.0
20210614160030 80 315 2.0 2.0 0.00 0.00 0.00 48 1017.0
20210614155029 79 315 2.0 2.0 0.00 0.00 0.00 47 1017.0
20210614154030 80 0.0 0.0 0.00 0.00 0.00 47 1017.0
20210614153030 79 0.0 0.0 0.00 0.00 0.00 46 1017.0
20210614152031 80 0.0 0.0 0.00 0.00 0.00 46 1017.0
20210614151018 80 0.0 0.0 0.00 0.00 0.00 46 1018.0
20210614150023 81 0.0 0.0 0.00 0.00 0.00 45 1017.3
20210614145029 82 0.0 0.0 0.00 0.00 0.00 45 1017.0
20210614144029 81 0.0 0.0 0.00 0.00 0.00 47 1017.0
20210614143022 83 0.0 0.0 0.00 0.00 0.00 49 1017.7
20210614142023 81 0.0 0.0 0.00 0.00 0.00 57 1018.0
20210614141057 83 0.0 0.0 0.00 0.00 0.00 58 1018.0
20210614140047 83 0.0 0.0 0.00 0.00 0.00 46 1018.0
20210614135030 83 225 1.0 1.0 0.00 0.00 0.00 46 1018.0
20210614134029 81 262 3.0 6.0 0.00 0.00 0.00 45 1018.0
20210614133015 83 0.0 0.0 0.00 0.00 0.00 47 1017.3
20210614132031 82 225 4.0 4.0 0.00 0.00 0.00 48 1017.0
20210614131024 82 225 3.0 3.0 0.00 0.00 0.00 47 1018.0
20210614130034 81 0.0 0.0 0.00 0.00 0.00 47 1018.0
20210614125030 81 0.0 0.0 0.00 0.00 0.00 47 1018.0
20210614124032 80 0.0 0.0 0.00 0.00 0.00 48 1018.0
20210614123030 80 180 3.0 3.0 0.00 0.00 0.00 50 1018.0
20210614122028 79 297 2.0 3.0 0.00 0.00 0.00 50 1018.0
20210614121022 79 199 4.0 4.0 0.00 0.00 0.00 50 1018.0
20210614120031 78 315 1.0 4.0 0.00 0.00 0.00 51 1018.0
20210614115028 78 0.0 0.0 0.00 0.00 0.00 51 1018.0
20210614114030 77 225 1.0 1.0 0.00 0.00 0.00 51 1018.0
20210614113030 77 0.0 0.0 0.00 0.00 0.00 52 1018.0
20210614112024 76 0.0 0.0 0.00 0.00 0.00 52 1018.0
20210614111030 76 0.0 0.0 0.00 0.00 0.00 53 1018.0
20210614110030 76 0.0 0.0 0.00 0.00 0.00 52 1018.0
20210614105031 76 0.0 0.0 0.00 0.00 0.00 53 1018.0
20210614104030 75 0.0 0.0 0.00 0.00 0.00 53 1018.0
20210614103030 75 0.0 0.0 0.00 0.00 0.00 54 1018.0
20210614102030 74 0.0 0.0 0.00 0.00 0.00 54 1018.0
20210614101031 74 0.0 0.0 0.00 0.00 0.00 52 1018.0
20210614100030 74 0.0 0.0 0.00 0.00 0.00 53 1018.0
20210614095024 74 0.0 0.0 0.00 0.00 0.00 53 1018.0
20210614094030 73 0.0 0.0 0.00 0.00 0.00 55 1018.0
20210614093030 72 0.0 0.0 0.00 0.00 0.00 55 1018.0
20210614092017 72 0.0 0.0 0.00 0.00 0.00 57 1018.0
20210614091030 72 0.0 0.0 0.00 0.00 0.00 58 1018.0
20210614090030 71 0.0 0.0 0.00 0.00 0.00 59 1018.0
20210614085031 71 0.0 0.0 0.00 0.00 0.00 60 1018.0
20210614084030 71 0.0 0.0 0.00 0.00 0.00 60 1018.0
20210614083030 70 0.0 0.0 0.00 0.00 0.00 61 1018.0
20210614082033 70 0.0 0.0 0.00 0.00 0.00 63 1018.0
20210614081025 69 0.0 0.0 0.00 0.00 0.00 64 1018.0
20210614080035 69 0.0 0.0 0.00 0.00 0.00 65 1018.0
20210614075030 68 0.0 0.0 0.00 0.00 0.00 66 1018.0
20210614074028 67 0.0 0.0 0.00 0.00 0.00 67 1018.0
20210614073030 67 0.0 0.0 0.00 0.00 0.00 69 1018.0